Minot AFB, ND

10:20 AM CST on February 24, 2018 (GMT -0600)
Minot Air Force Base

Weather History for KMIB - October, 2012

Change the Weather History Date:

Saturday, October 6, 2012

  Actual Average Record
Temperature  
Mean Temperature 32 °F -  
Max Temperature 47 °F 59 °F 86 °F (2003)
Min Temperature 18 °F 34 °F 18 °F (2012)
Degree Days  
Heating Degree Days 32    
Moisture  
Dew Point 20 °F    
Average Humidity 60    
Maximum Humidity 87    
Minimum Humidity 29    
Precipitation  
Precipitation 0.00 in - - ()
Sea Level Pressure  
Sea Level Pressure 30.34 in    
Wind  
Wind Speed 9 mph (West)    
Max Wind Speed 14 mph    
Max Gust Speed 22 mph    
Visibility 10 miles    
Events      
Averages and records for this station are not official NWS values.
T = Trace of Precipitation, MM = Missing Value Source: NWS Daily Summary

Daily Weather History Graph

Daily Weather History Graph

Search for Another Location

Airport or City:

Trip Planner

Search our weather history database for the weather conditions in past years. The results will help you decide how hot, cold, wet, or windy it might be!

Date:

Astronomy

Oct. 06, 2012 Rise Set
Actual Time 7:52 AM CDT 7:13 PM CDT
Civil Twilight 7:21 AM CDT 7:44 PM CDT
Nautical Twilight 6:45 AM CDT 8:20 PM CDT
Astronomical Twilight 6:08 AM CDT 8:57 PM CDT
Moon 11:09 PM CDT (10/6) 2:10 PM CDT (10/6)
Length of Visible Light 12h 22m
Length of Day
11h 20m
Waning Gibbous, 65% of the Moon is Illuminated
Oct 6
Waning Gibbous
Oct 8
Last Quarter
Oct 15
New
Oct 21
First Quarter
Oct 29
Full

Hourly Weather History & Observations

Time (CDT) Temp. Windchill Dew Point Humidity Pressure Visibility Wind Dir Wind Speed Gust Speed Precip Events Conditions
12:55 AM 30.0 °F 21.1 °F 22.1 °F 72% 30.45 in 10.0 mi WNW 10.4 mph - N/A   Scattered Clouds
1:55 AM 26.2 °F 17.1 °F 20.3 °F 78% 30.45 in 10.0 mi WNW 9.2 mph - N/A   Mostly Cloudy
2:55 AM 25.2 °F 17.3 °F 19.9 °F 81% 30.45 in 10.0 mi WNW 6.9 mph - N/A   Clear
3:55 AM 23.5 °F 16.4 °F 18.9 °F 82% 30.45 in 10.0 mi WNW 5.8 mph - N/A   Clear
4:55 AM 21.4 °F 13.8 °F 17.6 °F 85% 30.45 in 10.0 mi WNW 5.8 mph - N/A   Clear
5:55 AM 20.1 °F 10.3 °F 16.7 °F 87% 30.45 in 10.0 mi West 8.1 mph - N/A   Clear
6:55 AM 18.7 °F 9.5 °F 15.4 °F 87% 30.45 in 10.0 mi West 6.9 mph - N/A   Clear
7:55 AM 18.9 °F 9.8 °F 15.3 °F 86% 30.46 in 10.0 mi West 6.9 mph - N/A   Clear
8:55 AM 23.9 °F 16.8 °F 18.9 °F 81% 30.45 in 10.0 mi West 5.8 mph - N/A   Clear
9:55 AM 31.5 °F 23.5 °F 20.5 °F 64% 30.44 in 10.0 mi West 9.2 mph - N/A   Clear
10:55 AM 35.6 °F 27.1 °F 20.3 °F 54% 30.43 in 10.0 mi West 12.7 mph - N/A   Clear
11:55 AM 39.4 °F 31.8 °F 20.1 °F 46% 30.40 in 10.0 mi WSW 12.7 mph 17.3 mph N/A   Clear
12:55 PM 41.4 °F 34.7 °F 18.3 °F 40% 30.38 in 10.0 mi SW 11.5 mph - N/A   Clear
1:55 PM 44.1 °F 39.5 °F 15.1 °F 31% 30.34 in 10.0 mi West 8.1 mph - N/A   Clear
2:55 PM 45.9 °F 40.4 °F 14.9 °F 29% 30.30 in 10.0 mi West 11.5 mph - N/A   Clear
3:55 PM 47.5 °F - 17.1 °F 30% 30.27 in 10.0 mi West 13.8 mph 21.9 mph N/A   Clear
4:55 PM 47.7 °F - 18.3 °F 31% 30.25 in 10.0 mi West 10.4 mph - N/A   Clear
5:55 PM 47.1 °F - 19.4 °F 33% 30.22 in 10.0 mi West 9.2 mph - N/A   Clear
6:55 PM 43.7 °F 40.3 °F 22.1 °F 42% 30.21 in 10.0 mi WSW 5.8 mph - N/A   Clear
7:55 PM 39.6 °F 35.4 °F 23.9 °F 54% 30.21 in 10.0 mi SW 5.8 mph - N/A   Clear
8:55 PM 36.5 °F 31.0 °F 23.7 °F 60% 30.18 in 10.0 mi SW 6.9 mph - N/A   Clear
9:55 PM 36.1 °F 29.9 °F 23.9 °F 61% 30.15 in 10.0 mi SW 8.1 mph - N/A   Clear
10:55 PM 34.3 °F 27.0 °F 23.9 °F 66% 30.13 in 10.0 mi SW 9.2 mph - N/A   Clear
11:55 PM 34.3 °F 27.7 °F 25.3 °F 70% 30.10 in 10.0 mi SW 8.1 mph - N/A   Clear